Date String (YYYY-MM-DD hh:mm:ss) UTC,Instrument flags,Ambient pressure (hPa),Sample flow (lpm),Bypass flow (lpm),Sample temperature (°C),Ambient temperature (°C),ASC tube jacket temperature (°C),LED temperature (°C),Box temperature (°C),Sample RH (%),Span deviation,Mass concentration (μg/m³),Mass concentration (μg/m³),Mass concentration (μg/m³)
DateTimeUTC,F1_M11,P_M11,Q1_M11,Q2_M11,T1_M11,T2_M11,T3_M11,T4_M11,T5_M11,U1_M11,ZSPAN_M11,X0_M11,X2_M11,X1_M11
2022-08-19 00:00:00,,0829.3,5.01,0.00,29.5,28.2,00.0,38.1,31.4,21.7,0000.0,0015.88,0006.65,0005.77
2022-08-19 00:01:00,,0829.3,5.01,0.00,29.5,28.3,00.0,38.2,31.5,21.3,0000.0,0016.81,0006.64,0005.77
2022-08-19 00:02:00,,0829.3,4.99,0.00,29.5,28.4,00.0,38.2,31.5,21.3,0000.0,0017.23,0006.63,0005.77
2022-08-19 00:03:00,,0829.3,5.01,0.00,29.5,27.8,00.0,38.1,31.3,21.9,0000.0,0017.27,0006.63,0005.77
2022-08-19 00:04:00,,0829.0,5.00,0.00,29.4,27.2,00.0,38.1,31.2,21.7,0000.0,0017.85,0006.62,0005.77
2022-08-19 00:05:00,,0829.2,5.00,0.00,29.4,27.2,00.0,38.1,31.1,21.3,0000.0,0018.82,0006.71,0005.78
2022-08-19 00:06:00,,0829.3,5.01,0.00,29.3,27.3,00.0,38.1,31.1,21.3,0000.0,0018.95,0006.72,0005.78
2022-08-19 00:07:00,,0829.3,5.00,0.00,29.3,27.5,00.0,38.1,31.1,21.3,0000.0,0019.10,0006.80,0005.79
2022-08-19 00:08:00,,0829.3,5.00,0.00,29.3,27.7,00.0,38.1,31.2,21.5,0000.0,0019.38,0006.81,0005.79
2022-08-19 00:09:00,,0829.3,5.00,0.00,29.4,27.9,00.0,38.1,31.3,21.3,0000.0,0019.42,0006.80,0005.79
2022-08-19 00:10:00,,0829.3,5.00,0.00,29.4,28.1,00.0,38.1,31.4,21.1,0000.0,0019.82,0006.85,0005.79
2022-08-19 00:11:00,,0829.4,5.00,0.00,29.5,28.3,00.0,38.1,31.5,21.0,0000.0,0019.16,0006.78,0005.77
2022-08-19 00:12:00,,0829.2,4.99,0.00,29.5,28.4,00.0,38.2,31.6,21.0,0000.0,0018.32,0006.77,0005.77
2022-08-19 00:13:00,,0828.9,5.01,0.00,29.5,28.3,00.0,38.2,31.5,21.0,0000.0,0017.73,0006.79,0005.77
2022-08-19 00:14:00,,0829.3,5.01,0.00,29.5,27.6,00.0,38.1,31.3,21.3,0000.0,0017.06,0006.83,0005.77
2022-08-19 00:15:00,,0829.3,5.01,0.00,29.4,27.2,00.0,38.1,31.2,21.4,0000.0,0017.02,0006.85,0005.78
2022-08-19 00:16:00,,0829.2,4.99,0.00,29.4,27.3,00.0,38.1,31.2,21.7,0000.0,0016.02,0006.75,0005.77
2022-08-19 00:17:00,,0829.2,5.00,0.00,29.3,27.4,00.0,38.1,31.1,21.9,0000.4,0015.83,0006.76,0005.77
2022-08-19 00:18:00,,0829.4,5.00,0.00,29.3,27.6,00.0,38.1,31.2,22.1,0000.0,0016.20,0006.73,0005.77
2022-08-19 00:19:00,,0829.3,5.00,0.00,29.4,27.8,00.0,38.1,31.3,22.5,0000.0,0016.52,0006.72,0005.76
2022-08-19 00:20:00,,0829.2,4.99,0.00,29.4,28.0,00.0,38.1,31.3,22.2,0000.0,0016.22,0006.77,0005.76
2022-08-19 00:21:00,,0829.1,5.00,0.00,29.4,28.2,00.0,38.1,31.4,22.2,0000.0,0015.63,0006.77,0005.76
2022-08-19 00:22:00,,0829.0,5.00,0.00,29.5,28.3,00.0,38.2,31.5,22.7,0000.0,0015.66,0006.82,0005.78
2022-08-19 00:23:00,,0828.7,5.00,0.00,29.5,28.5,00.0,38.2,31.6,22.2,0000.0,0015.89,0006.85,0005.78
2022-08-19 00:24:00,,0828.7,4.99,0.00,29.5,28.1,00.0,38.2,31.4,21.6,0000.0,0016.30,0006.89,0005.78
2022-08-19 00:25:00,,0828.7,5.01,0.00,29.5,27.4,00.0,38.1,31.2,21.6,0000.0,0016.30,0006.93,0005.78
2022-08-19 00:26:00,,0829.0,4.99,0.00,29.4,27.2,00.0,38.1,31.2,21.7,0000.0,0016.35,0006.96,0005.79
2022-08-19 00:27:00,,0829.2,4.99,0.00,29.4,27.3,00.0,38.1,31.1,22.4,0000.0,0016.23,0007.03,0005.82
2022-08-19 00:28:00,,0829.1,5.01,0.00,29.3,27.4,00.0,38.1,31.2,21.7,0000.0,0016.04,0007.03,0005.83
2022-08-19 00:29:00,,0829.2,4.99,0.00,29.3,27.6,00.0,38.1,31.2,21.4,0000.0,0015.99,0007.00,0005.84
2022-08-19 00:30:00,,0829.2,5.00,0.00,29.4,27.8,00.0,38.1,31.3,21.6,0000.0,0014.99,0006.99,0005.86
2022-08-19 00:31:00,,0829.1,4.99,0.00,29.4,28.0,00.0,38.1,31.4,21.7,0000.0,0014.75,0006.97,0005.89
2022-08-19 00:32:00,,0829.1,5.00,0.00,29.5,28.2,00.0,38.1,31.5,21.9,0000.0,0015.03,0006.99,0005.92
2022-08-19 00:33:00,,0829.2,5.00,0.00,29.5,28.4,00.0,38.2,31.5,21.5,0000.0,0015.14,0006.99,0005.95
2022-08-19 00:34:00,,0829.0,5.00,0.00,29.6,28.4,00.0,38.2,31.6,22.2,0000.0,0015.64,0006.98,0005.97
2022-08-19 00:35:00,,0828.7,5.00,0.00,29.5,27.9,00.0,38.2,31.3,22.5,0000.0,0014.72,0006.94,0005.99
2022-08-19 00:36:00,,0828.7,5.00,0.00,29.4,27.3,00.0,38.1,31.2,22.6,0000.0,0014.55,0006.91,0006.02
2022-08-19 00:37:00,,0828.6,5.01,0.00,29.4,27.2,00.0,38.1,31.2,22.2,0000.0,0014.34,0006.91,0006.02
2022-08-19 00:38:00,,0828.8,4.99,0.00,29.3,27.3,00.0,38.1,31.1,22.8,0001.7,0015.26,0006.87,0006.04
2022-08-19 00:39:00,,0828.6,5.01,0.00,29.3,27.5,00.0,38.1,31.1,22.9,0000.0,0015.51,0006.88,0006.05
2022-08-19 00:40:00,,0829.2,5.00,0.00,29.3,27.7,00.0,38.1,31.2,23.0,0000.0,0014.68,0006.89,0006.06
2022-08-19 00:41:00,,0828.8,5.00,0.00,29.4,27.9,00.0,38.1,31.3,22.3,0000.0,0014.50,0006.87,0006.06
2022-08-19 00:42:00,,0828.8,5.00,0.00,29.4,28.1,00.0,38.1,31.4,22.2,0000.0,0015.40,0006.86,0006.06
2022-08-19 00:43:00,,0828.8,5.00,0.00,29.5,28.3,00.0,38.2,31.5,22.0,0000.0,0016.55,0006.84,0006.02
2022-08-19 00:44:00,,0829.2,5.00,0.00,29.5,28.4,00.0,38.2,31.6,22.0,0000.0,0018.06,0006.83,0006.01
2022-08-19 00:45:00,,0828.9,5.00,0.00,29.6,28.5,00.0,38.2,31.6,22.2,0000.0,0018.15,0006.86,0006.00
2022-08-19 00:46:00,,0829.1,5.00,0.00,29.6,28.0,00.0,38.2,31.4,22.5,0000.0,0018.23,0006.88,0006.00
2022-08-19 00:47:00,,0829.0,5.01,0.00,29.5,27.4,00.0,38.1,31.2,21.9,0000.0,0018.23,0006.86,0005.99
2022-08-19 00:48:00,,0829.1,5.00,0.00,29.4,27.2,00.0,38.1,31.2,21.6,0000.0,0017.88,0006.83,0005.97
2022-08-19 00:49:00,,0828.8,5.00,0.00,29.4,27.3,00.0,38.1,31.1,21.7,0000.0,0017.04,0006.85,0005.95
2022-08-19 00:50:00,,0828.9,5.00,0.00,29.4,27.4,00.0,38.1,31.2,22.1,0000.0,0016.87,0006.83,0005.94
2022-08-19 00:51:00,,0829.0,5.00,0.00,29.4,27.6,00.0,38.1,31.2,22.4,0000.0,0016.74,0006.81,0005.92
2022-08-19 00:52:00,,0828.7,5.00,0.00,29.4,27.8,00.0,38.1,31.3,22.7,0000.0,0016.73,0006.86,0005.92
2022-08-19 00:53:00,,0829.0,5.00,0.00,29.4,28.0,00.0,38.1,31.4,22.8,0000.0,0015.65,0006.89,0005.92
2022-08-19 00:54:00,,0829.0,5.00,0.00,29.5,28.2,00.0,38.2,31.5,23.1,0000.0,0014.84,0006.90,0005.92
2022-08-19 00:55:00,,0829.0,5.01,0.00,29.5,28.4,00.0,38.2,31.5,23.1,0000.0,0013.98,0006.92,0005.93
2022-08-19 00:56:00,,0829.1,5.00,0.00,29.6,28.5,00.0,38.2,31.6,23.2,0000.0,0013.78,0006.98,0005.94
2022-08-19 00:57:00,,0828.8,4.99,0.00,29.6,28.2,00.0,38.2,31.5,22.9,0000.0,0015.01,0007.06,0005.95
2022-08-19 00:58:00,,0828.9,5.01,0.00,29.5,27.4,00.0,38.1,31.2,22.9,0000.0,0016.00,0007.11,0005.95
2022-08-19 00:59:00,,0828.7,4.99,0.00,29.5,27.2,00.0,38.1,31.2,23.1,0000.0,0018.01,0007.13,0005.97
